Location: Newark
(15.5700°N, 75.3700°E)
Time: 23:57:05
(UTC+00:00)

Envisat - Visible Passes

Search period start: 15 November 2019 00:00
Search period end: 25 November 2019 00:00
Orbit: 764 x 766 km, 98.1° (Epoch: 14 November)

Date Brightness Start Highest point End Pass type
(mag) Time Alt. Az. Time Alt. Az. Time Alt. Az.
15 Nov 3.2 12:57:34 10° SSE 13:02:27 50° ENE 13:07:20 10° N visible
16 Nov 5.0 14:00:17 10° SSW 14:04:36 28° W 14:08:56 10° NW visible
17 Nov 3.1 13:22:48 10° S 13:27:52 80° WSW 13:32:56 10° NNW visible
18 Nov 3.5 12:46:35 10° SE 12:51:14 37° ENE 12:55:51 10° N visible
18 Nov 6.0 14:27:36 10° SW 14:30:08 14° W 14:32:40 10° WNW visible
19 Nov 4.5 13:48:39 10° SSW 13:53:20 38° W 13:58:02 10° NNW visible
20 Nov 6.2 00:34:09 10° ENE 00:37:01 15° E 00:39:54 10° SE visible
20 Nov 2.9 13:11:34 10° SSE 13:16:37 77° ENE 13:21:41 10° N visible
21 Nov 5.7 14:15:20 10° SW 14:18:50 19° W 14:22:21 10° NW visible
22 Nov 3.8 13:37:09 10° S 13:42:04 52° W 13:46:59 10° NNW visible
23 Nov 6.6 00:24:31 10° E 00:25:44 11° E 00:26:57 10° ESE visible
23 Nov 3.0 13:00:26 10° SSE 13:05:23 56° ENE 13:10:20 10° N visible
24 Nov 5.2 14:03:25 10° SSW 14:07:33 25° W 14:11:42 10° NW visible
